Wetbulb
42.34 43.97 44.34 45.46 45.66 45.82 45.92 47.88 46.69 44.62 46.73 51.82 54.88 59.24 61.87 62.51 62.49 63.54 63.48 56.50 52.90 52.37 53.08 55.01 56.73 57.57 57.89 58.89 59.81 61.01 61.86 62.10 62.10 61.94 61.83 62.26 62.61 62.66
38.42 38.99 39.35 41.91 44.86 46.36 47.51 47.91 49.51 47.46 45.95 52.06 55.37 56.63 59.15 60.79 60.63 60.15 61.21 55.09 50.92 51.29 51.29 51.65 52.19 53.62 53.99 54.89 55.62 56.60 58.39 59.87 60.40 60.56 60.87 61.10 61.57 61.87
33.71 33.50 33.70 36.65 38.36 40.33 43.98 47.37 49.27 50.21 48.60 51.38 54.29 54.84 53.95 52.94 55.79 59.95 59.60 60.12 57.81 50.20 48.93 49.29 49.66 50.20 51.65 51.99 52.17 53.28 54.33 55.42 57.03 58.71 59.26 60.02 60.71 61.20
31.47 31.23 31.27 32.96 33.01 34.85 37.59 40.49 44.00 45.28 49.19 49.94 51.91 51.43 44.63 44.13 46.49 49.07 54.74 53.02 55.21 47.37 46.68 47.28 47.99 47.10 47.26 47.48 48.02 48.75 49.82 51.65 52.72 53.95 55.66 57.59 58.82 59.77
29.10 30.81 30.49 30.60 30.14 31.20 32.16 34.79 37.49 43.33 43.29 46.24 42.99 40.26 42.85 39.41 41.97 44.05 46.18 45.41 44.80 44.30 46.03 43.61 43.55 44.96 45.04 43.30 43.04 44.39 46.90 47.28 47.66 48.75 49.66 50.56 53.24 55.76
27.69 28.40 30.41 30.81 29.83 29.65 29.54 30.70 33.18 34.58 36.20 36.63 33.55 32.73 33.70 36.47 37.74 36.28 40.27 41.96 36.36 38.80 43.26 42.31 41.71 40.81 40.53 40.25 40.43 40.63 41.39 44.03 45.43 45.99 45.83 45.67 46.39 49.66
25.00 25.67 27.90 32.36 32.96 31.65 29.44 28.37 29.73 29.56 29.12 28.62 27.94 28.20 27.75 28.55 29.90 33.88 36.32 39.72 34.77 32.03 36.21 38.52 39.99 39.26 38.42 38.39 38.96 39.34 39.34 39.73 40.71 42.78 45.09 44.73 44.40 46.21
21.35 22.72 24.36 27.40 29.29 30.70 30.88 30.76 29.48 27.30 26.44 25.83 25.27 24.67 25.37 27.00 30.30 32.58 33.03 35.02 34.69 31.98 31.04 34.75 36.50 35.46 35.16 35.76 36.82 37.08 37.60 37.91 38.26 38.40 38.56 38.84 39.11 41.18
20.08 20.86 22.17 24.26 26.01 27.27 28.04 28.75 29.01 29.04 28.16 26.46 24.06 24.07 24.23 26.10 29.06 29.84 33.16 31.14 28.19 27.48 28.88 33.20 32.19 32.19 33.04 34.84 36.12 35.98 36.00 36.16 36.36 36.69 36.90 36.65 36.60 37.37
20.40 19.98 20.02 21.17 23.66 24.30 25.19 24.80 25.25 26.25 26.83 27.03 26.03 25.66 26.03 26.20 27.17 29.27 29.85 32.47 31.16 27.39 27.15 26.86 31.34 30.28 33.40 33.42 34.93 34.88 34.38 34.79 35.25 35.51 35.50 35.43 35.69 36.65
19.45 20.90 19.82 19.97 24.80 25.28 21.17 21.01 22.35 23.44 27.68 28.43 28.09 28.22 27.86 28.35 27.81 26.84 24.45 24.03 27.83 24.70 24.88 25.66 28.32 28.01 31.38 32.04 32.99 34.55 34.07 33.74 34.02 34.29 34.48 34.77 34.84 34.98
19.60 19.89 24.09 22.13 23.90 23.87 19.35 19.66 18.46 20.14 21.30 21.77 22.77 23.84 25.35 25.25 27.59 25.14 25.60 21.74 21.53 20.96 23.93 23.05 25.16 25.44 24.16 32.04 32.24 32.77 32.86 33.54 33.73 33.90 33.85 34.04 34.08 32.33
19.14 19.21 20.54 24.09 23.83 23.20 22.81 19.29 19.71 20.21 19.97 19.75 19.78 20.47 20.64 22.13 22.11 24.14 23.39 23.69 20.13 16.91 22.85 23.50 22.63 22.44 22.02 22.85 27.43 29.68 31.69 32.32 31.98 32.52 33.59 33.75 33.27 32.83
18.84 20.06 21.00 24.36 23.68 23.24 20.44 22.10 21.99 18.83 18.38 17.09 16.72 16.60 17.80 18.47 19.51 20.33 21.33 22.48 23.46 18.57 18.68 19.31 17.55 20.00 21.55 21.96 21.02 25.61 27.38 27.51 30.58 29.37 30.07 31.79 33.25 32.63
22.37 23.25 24.14 23.75 23.32 21.29 22.32 20.94 18.38 17.35 16.14 14.88 14.14 14.88 17.17 18.28 18.01 18.70 19.23 20.22 20.39 20.44 22.17 18.54 17.26 19.30 19.25 19.14 21.28 23.33 23.50 24.09 26.95 26.22 26.59 27.95 31.42 28.12
21.93 21.50 19.08 21.37 15.82 16.10 18.28 18.23 16.73 16.09 15.46 14.34 14.24 15.04 16.69 16.95 17.32 18.49 17.36 17.35 16.84 16.44 20.87 19.99 19.30 19.08 16.57 20.49 23.11 20.52 21.36 21.23 24.18 24.31 24.92 26.24 28.52 31.12
20.08 19.49 18.38 17.92 17.29 17.03 16.83 17.16 16.20 15.48 14.35 14.81 13.62 13.11 13.17 15.06 15.47 16.87 16.67 15.01 12.93 12.57 14.11 18.11 19.72 20.35 19.61 17.77 17.69 16.79 17.95 19.36 21.60 23.23 23.79 22.98 26.21 28.68
17.94 15.79 14.52 14.77 14.37 14.78 14.20 14.27 14.82 13.73 13.91 14.45 13.18 13.01 11.52 12.26 13.01 14.07 14.62 12.09 10.83 11.81 13.33 15.17 15.68 15.20 14.79 15.90 20.55 15.03 16.29 17.07 19.44 21.98 22.47 19.42 21.35 25.73
14.49 13.86 12.71 12.94 13.00 13.77 12.86 12.80 12.04 13.99 15.04 13.60 12.81 11.85 11.59 11.71 11.89 11.60 11.98 11.16 10.15 11.19 12.93 14.52 13.77 11.56 6.99 5.14 13.59 21.48 15.57 17.94 21.58 22.06 21.58 19.32 19.42 21.60
13.95 12.39 11.84 12.41 12.25 12.12 11.84 11.73 11.65 12.45 12.16 12.46 12.28 10.31 8.56 10.24 10.11 9.78 9.93 8.45 8.84 10.57 10.56 12.26 11.85 10.91 7.90 7.61 9.57 14.56 23.02 17.64 17.48 18.61 19.22 20.72 21.85 26.26
12.22 11.98 11.61 11.45 11.34 11.58 9.79 9.65 9.13 9.38 10.27 9.24 10.16 10.52 8.84 9.38 9.16 9.41 8.88 7.73 7.72 9.54 7.86 8.66 11.32 13.98 13.89 14.47 9.09 10.51 15.11 21.71 21.89 19.29 19.80 18.44 18.13 19.06
10.59 10.32 10.52 10.24 9.39 9.12 7.71 7.13 7.17 7.06 7.82 8.72 8.03 7.40 7.54 8.56 8.44 8.38 7.77 7.24 7.89 8.25 8.57 10.54 12.61 12.48 11.31 9.81 7.47 8.60 12.13 15.82 20.34 22.48 24.32 24.99 20.24 16.20
8.60 8.56 7.56 7.30 7.14 6.35 5.51 4.52 5.07 4.94 6.29 6.66 5.35 4.79 4.32 6.07 8.73 9.04 7.99 8.01 7.87 7.41 7.43 7.50 8.76 10.14 9.27 9.16 8.43 9.38 10.64 11.93 14.89 16.01 18.75 24.84 25.41 26.03
MSLP
1011.32 1011.03 1010.87 1010.72 1010.59 1010.38 1010.28 1010.04 1009.57 1008.44 1007.09 1006.35 1005.82 1005.09 1004.95 1004.58 1004.45 1004.38 1004.63 1005.08 1005.51 1005.88 1006.12 1006.29 1007.12 1007.42 1007.62 1008.22 1008.67 1009.13 1009.86 1010.53 1011.04 1011.50 1011.89 1012.28 1012.71 1013.13
1011.94 1011.48 1011.31 1010.96 1010.50 1010.09 1009.61 1009.30 1008.87 1008.37 1007.21 1006.84 1006.07 1005.76 1005.64 1005.18 1004.63 1004.41 1004.25 1004.65 1005.27 1005.73 1006.23 1006.71 1007.11 1007.64 1007.54 1007.94 1008.40 1008.62 1009.04 1009.54 1010.04 1010.43 1010.76 1011.33 1011.71 1012.11
1013.23 1012.87 1012.42 1011.77 1011.26 1010.60 1009.77 1009.01 1008.62 1007.86 1007.03 1006.41 1006.10 1005.82 1005.86 1006.27 1005.69 1004.79 1004.39 1004.82 1005.39 1005.81 1005.78 1006.24 1006.83 1007.11 1007.39 1007.35 1008.24 1008.13 1008.75 1009.05 1009.36 1009.45 1009.72 1010.02 1010.25 1010.67
1014.54 1013.99 1013.53 1012.83 1012.10 1011.45 1010.64 1009.83 1009.08 1008.47 1007.58 1006.83 1006.45 1006.77 1007.15 1007.22 1006.59 1005.95 1005.81 1005.95 1005.92 1006.72 1006.82 1006.38 1005.99 1005.94 1007.22 1006.63 1006.80 1007.72 1008.22 1008.35 1008.51 1008.62 1008.60 1008.97 1009.29 1009.57
1015.98 1015.18 1014.69 1013.84 1012.99 1012.40 1011.70 1010.85 1010.19 1009.34 1008.82 1008.22 1008.65 1009.03 1008.95 1009.06 1007.80 1007.97 1006.84 1007.73 1007.72 1007.84 1007.41 1007.67 1007.09 1006.66 1006.31 1006.57 1006.42 1008.82 1008.30 1008.01 1008.00 1008.00 1007.92 1008.06 1008.25 1008.39
1017.29 1016.56 1015.65 1014.99 1014.32 1013.49 1012.77 1012.12 1011.49 1010.75 1010.45 1010.48 1010.92 1011.14 1011.16 1010.70 1009.91 1009.84 1008.38 1008.53 1009.05 1009.81 1008.67 1008.63 1008.76 1008.31 1008.36 1007.86 1007.48 1008.78 1008.60 1007.65 1007.39 1007.58 1007.63 1007.62 1007.65 1007.77
1018.50 1017.87 1017.20 1016.37 1015.82 1015.13 1014.27 1013.77 1012.96 1012.57 1012.55 1012.45 1012.71 1012.64 1012.84 1012.29 1011.59 1011.29 1010.26 1009.42 1010.23 1011.63 1009.54 1009.67 1010.10 1010.27 1009.92 1009.46 1009.02 1008.44 1008.41 1008.88 1007.76 1007.45 1007.58 1007.30 1006.54 1007.31
1020.07 1019.45 1018.63 1017.71 1017.01 1016.50 1015.94 1015.47 1015.01 1014.49 1014.22 1014.43 1014.60 1014.50 1014.43 1013.87 1013.11 1012.59 1011.69 1010.57 1010.69 1011.38 1011.16 1011.23 1011.30 1010.87 1010.55 1010.71 1010.33 1009.95 1009.03 1009.52 1008.92 1008.16 1009.19 1008.24 1006.44 1007.02
1021.56 1020.93 1020.10 1019.35 1018.53 1017.91 1017.57 1017.02 1016.51 1016.31 1016.16 1016.12 1016.03 1016.13 1015.82 1015.41 1014.47 1013.47 1012.40 1012.72 1013.56 1013.66 1012.80 1012.40 1012.46 1011.82 1012.04 1011.53 1011.36 1011.04 1010.14 1010.03 1009.65 1008.86 1009.62 1009.12 1007.93 1007.34
1022.56 1022.19 1021.54 1020.78 1020.05 1019.45 1018.84 1018.29 1017.89 1017.45 1017.10 1017.05 1017.04 1017.16 1016.95 1016.59 1015.76 1015.17 1014.51 1014.03 1013.84 1014.66 1014.56 1014.08 1013.16 1012.94 1012.64 1012.34 1011.94 1011.36 1010.70 1011.25 1011.05 1010.75 1010.26 1009.33 1008.54 1007.62
1023.53 1022.90 1022.38 1021.88 1021.31 1020.73 1020.05 1019.71 1019.37 1019.12 1018.84 1018.55 1018.34 1018.11 1017.82 1017.14 1016.56 1015.92 1015.22 1014.64 1014.97 1015.75 1015.33 1014.73 1014.53 1013.61 1012.66 1012.86 1012.49 1012.12 1011.62 1011.77 1011.55 1010.85 1010.51 1009.48 1008.71 1008.41
1024.17 1023.88 1023.02 1022.63 1022.28 1021.72 1021.31 1020.99 1020.59 1020.54 1020.17 1019.77 1019.31 1018.93 1018.51 1018.06 1017.29 1017.30 1017.42 1017.29 1016.98 1016.87 1017.08 1016.17 1015.72 1014.75 1013.95 1013.25 1012.70 1012.39 1011.90 1011.92 1010.86 1010.18 1010.09 1009.55 1008.44 1008.17
1024.76 1024.45 1024.04 1023.57 1023.21 1022.95 1022.56 1022.16 1022.02 1021.84 1021.34 1021.05 1020.78 1020.40 1020.02 1019.47 1019.22 1018.79 1018.59 1018.40 1018.07 1018.08 1017.47 1017.12 1016.88 1016.20 1015.53 1014.76 1013.63 1013.19 1012.68 1012.30 1011.67 1010.94 1011.02 1010.87 1010.67 1010.23
1025.17 1024.90 1024.62 1024.14 1023.95 1023.64 1023.63 1023.32 1023.07 1022.96 1022.68 1022.41 1022.16 1021.89 1021.58 1021.26 1020.73 1020.02 1019.46 1018.84 1018.50 1018.47 1018.19 1017.83 1017.54 1017.02 1016.31 1015.19 1014.62 1013.84 1013.32 1012.73 1012.17 1011.91 1011.99 1011.46 1010.94 1010.70
1025.56 1025.22 1024.89 1024.76 1024.63 1024.57 1024.29 1024.20 1023.90 1023.61 1023.43 1023.17 1023.13 1022.97 1022.52 1022.20 1021.80 1021.58 1021.12 1020.37 1019.42 1018.90 1018.21 1017.79 1017.54 1017.13 1016.72 1016.33 1015.59 1014.59 1013.66 1012.96 1012.84 1012.68 1012.29 1011.79 1011.08 1010.74
1026.07 1025.79 1025.64 1025.26 1025.40 1025.51 1025.09 1024.97 1024.95 1024.84 1024.52 1024.48 1024.25 1023.86 1023.23 1022.32 1021.59 1021.15 1020.56 1020.11 1019.77 1019.89 1019.49 1018.95 1018.50 1017.82 1017.29 1016.64 1015.44 1015.01 1014.46 1014.00 1013.07 1012.60 1012.17 1011.69 1011.05 1010.57
1026.37 1026.52 1026.38 1026.16 1026.04 1026.01 1025.93 1025.78 1025.81 1025.74 1025.43 1025.22 1025.01 1024.79 1024.26 1023.34 1022.52 1021.95 1021.40 1021.05 1020.50 1019.79 1018.93 1018.11 1017.58 1017.07 1017.03 1016.92 1015.97 1015.77 1015.08 1014.39 1013.73 1013.12 1012.31 1011.83 1011.32 1010.82
1027.02 1027.35 1027.36 1027.26 1027.08 1026.96 1026.91 1026.92 1026.65 1026.49 1026.27 1025.99 1025.81 1025.59 1025.25 1024.51 1023.80 1023.22 1022.81 1022.55 1021.92 1021.12 1020.06 1019.21 1018.40 1017.69 1017.33 1016.76 1016.56 1016.39 1015.92 1015.35 1014.31 1013.43 1012.67 1012.29 1011.64 1011.27
1027.96 1028.23 1028.27 1028.09 1027.98 1027.91 1027.92 1027.75 1027.60 1027.33 1027.08 1026.79 1026.57 1026.32 1026.02 1025.49 1024.83 1024.27 1023.79 1023.44 1022.80 1022.07 1021.23 1020.40 1019.66 1019.15 1018.60 1018.06 1017.06 1016.63 1015.79 1014.66 1013.82 1013.29 1012.92 1012.56 1011.92 1011.19
1028.85 1029.01 1029.09 1028.98 1028.86 1028.84 1028.86 1028.73 1028.59 1028.21 1027.84 1027.57 1027.18 1026.91 1026.68 1026.36 1025.82 1025.33 1024.90 1024.45 1023.81 1022.86 1022.04 1021.37 1020.85 1020.54 1020.07 1019.11 1017.85 1016.45 1015.59 1015.01 1014.47 1013.57 1012.86 1012.29 1011.57 1010.76
1029.81 1029.85 1030.01 1029.90 1029.89 1029.82 1029.78 1029.58 1029.33 1029.04 1028.63 1028.31 1027.99 1027.64 1027.31 1026.93 1026.53 1026.10 1025.64 1025.12 1024.47 1023.75 1023.09 1022.44 1021.90 1021.36 1020.33 1019.13 1018.10 1017.15 1016.10 1015.43 1014.54 1013.83 1013.00 1012.06 1011.25 1010.60
1030.72 1030.75 1030.88 1030.83 1030.76 1030.70 1030.59 1030.41 1030.14 1029.84 1029.47 1029.07 1028.76 1028.45 1028.10 1027.63 1027.07 1026.56 1026.09 1025.57 1025.03 1024.48 1023.86 1023.15 1022.32 1021.52 1020.68 1019.85 1018.86 1017.74 1016.39 1015.22 1014.36 1013.20 1012.32 1011.33 1010.75 1010.42
1031.56 1031.68 1031.67 1031.62 1031.51 1031.53 1031.55 1031.46 1031.16 1030.83 1030.40 1030.09 1029.82 1029.45 1028.97 1028.38 1027.57 1026.97 1026.51 1026.02 1025.52 1024.99 1024.38 1023.51 1022.86 1022.12 1021.35 1020.42 1019.34 1018.07 1016.86 1015.56 1014.30 1012.99 1011.77 1010.79 1010.39 1009.95
Wind_Speed
9 9 8 7 7 8 8 9 8 10 12 8 4 5 5 5 8 9 10 15 18 17 18 22 23 21 20 22 23 25 26 27 26 27 27 29 28 29
9 11 10 7 7 9 9 9 9 10 14 9 7 4 7 8 10 7 3 3 11 13 11 11 12 14 12 14 14 16 20 25 26 26 27 27 27 28
13 13 13 11 7 7 6 6 4 5 12 8 4 2 4 7 12 8 4 3 4 11 11 13 14 16 17 17 17 16 17 17 21 26 27 29 29 28
14 15 14 10 11 10 8 9 8 7 7 4 2 6 9 11 7 15 12 13 11 21 16 11 13 15 21 14 15 19 18 18 20 21 23 26 27 29
15 13 15 15 13 11 10 9 8 6 7 5 7 7 4 11 8 7 11 11 12 21 18 25 25 11 11 17 21 12 14 14 15 18 19 19 22 26
15 15 15 16 17 15 13 13 11 10 10 9 8 7 6 7 6 7 6 7 10 12 12 17 18 24 24 21 23 17 20 9 10 13 14 15 16 17
16 16 17 21 28 25 13 16 14 12 10 10 10 9 9 7 11 8 5 5 6 10 7 11 9 8 10 16 17 21 22 21 21 15 12 14 10 15
15 16 16 22 19 26 27 31 26 14 15 11 11 11 13 10 8 7 7 4 4 10 9 7 9 9 10 7 21 20 22 19 20 21 18 16 15 7
16 15 15 15 18 15 21 23 25 28 24 13 13 14 13 13 11 12 10 7 5 9 8 4 8 5 5 9 20 21 21 21 21 21 18 18 14 11
15 16 15 16 20 16 13 15 16 15 16 11 13 12 12 12 12 10 11 1 6 8 11 4 7 5 3 4 19 21 23 19 18 17 16 16 18 13
13 15 15 16 28 27 14 14 14 14 16 24 24 24 24 26 22 9 12 11 4 5 12 4 7 7 1 3 4 17 17 17 18 19 20 19 19 14
11 12 27 23 29 29 15 13 14 13 12 12 12 15 16 18 24 15 9 10 7 5 9 6 8 8 5 2 2 5 7 14 17 21 23 24 24 10
9 8 9 25 27 27 24 15 16 11 11 10 10 9 11 11 11 9 9 4 5 2 6 6 5 6 3 4 5 7 7 4 6 7 14 15 17 14
7 6 8 22 23 25 18 25 23 10 8 8 8 10 9 9 8 8 9 9 1 2 3 2 2 4 5 4 4 6 4 4 7 8 7 12 8 10
4 12 17 18 19 12 23 24 16 10 10 10 10 9 8 7 4 6 3 8 6 7 5 4 2 5 2 3 7 6 6 5 6 6 7 9 6 2
7 5 7 7 7 6 7 10 9 9 9 9 9 9 9 10 9 10 9 10 6 6 8 4 4 4 4 9 6 8 9 7 7 7 7 8 8 1
5 5 6 6 7 7 7 8 8 8 9 8 9 9 10 10 10 10 10 10 10 11 10 9 11 8 8 8 7 9 8 9 9 10 7 8 8 3
6 6 6 7 8 8 9 8 8 8 7 8 8 9 10 10 10 9 9 10 10 11 10 10 10 9 10 6 12 9 7 8 9 10 6 4 7 8
5 6 6 7 7 8 8 8 9 8 8 7 6 7 8 9 10 9 10 10 11 10 10 10 11 11 12 12 9 18 11 10 8 7 6 3 5 9
6 6 7 7 8 8 8 8 8 8 7 8 6 5 5 8 8 8 9 9 10 10 11 11 11 12 11 10 12 12 20 12 10 10 6 6 6 15
7 7 7 7 8 8 7 7 8 8 8 7 7 7 6 7 8 7 8 10 10 9 11 10 11 19 11 12 10 10 10 23 20 14 11 9 8 6
6 7 7 7 7 7 7 8 8 8 8 8 8 8 8 8 8 7 7 9 9 9 9 10 12 11 11 12 13 14 13 12 18 24 24 18 6 5
6 6 6 6 6 7 8 8 8 7 8 8 8 8 9 9 8 7 7 8 9 9 11 10 11 11 11 12 14 12 18 16 13 13 13 22 11 14
Wind_Direction
264 253 253 250 253 264 262 260 251 272 272 280 273 279 265 266 247 244 231 206 220 226 224 212 215 208 209 214 210 209 214 218 221 224 223 224 220 217
26 21 11 346 297 261 264 251 244 244 262 261 282 322 332 321 278 255 258 213 208 213 220 236 241 249 237 235 224 216 219 223 223 221 223 223 221 220
28 26 17 1 347 342 335 330 301 281 256 266 262 277 328 10 350 274 194 186 175 218 202 209 220 227 234 221 231 232 233 229 226 221 221 223 221 220
29 28 22 14 14 4 351 348 347 337 318 303 326 2 38 342 33 16 17 29 29 29 17 323 227 214 214 213 216 223 234 227 227 227 225 224 221 219
18 17 30 24 25 18 14 5 355 4 4 22 42 12 8 15 4 358 37 17 31 10 28 31 43 21 34 59 46 341 277 253 244 233 228 224 224 221
20 17 18 33 30 25 26 21 19 31 30 43 43 29 3 358 358 352 15 39 38 3 26 24 28 45 40 48 55 36 10 324 264 252 247 238 235 234
24 21 19 29 41 39 37 32 32 43 44 43 40 37 22 4 10 341 329 351 98 15 7 28 24 21 32 32 33 46 40 20 33 8 279 241 226 246
25 22 20 22 27 43 44 46 46 38 47 45 40 34 19 6 351 352 343 359 9 24 352 44 358 10 27 17 36 29 39 28 29 38 15 15 51 15
34 27 25 22 23 25 39 41 47 50 51 47 45 35 24 8 351 356 15 50 57 6 353 33 5 28 7 25 33 28 35 28 23 29 15 6 19 23
31 35 30 28 30 25 27 40 36 38 43 42 42 37 33 20 13 12 8 356 112 44 12 9 6 345 348 14 28 28 32 23 21 18 16 17 7 11
31 30 39 32 35 32 31 34 35 34 33 38 43 37 33 32 34 20 26 27 6 33 12 339 8 327 346 12 17 23 24 18 13 17 11 12 14 4
32 25 33 38 35 37 32 30 33 25 24 27 24 26 22 22 23 30 16 29 7 17 357 356 0 2 335 312 9 4 12 3 3 8 5 6 12 2
31 26 24 36 38 38 36 34 32 14 21 27 26 25 18 18 14 13 13 26 33 35 342 359 1 348 307 311 324 12 347 354 356 3 359 355 1 6
29 22 26 33 36 38 37 35 33 26 28 29 27 22 24 12 7 355 355 355 26 150 299 21 327 348 331 320 344 336 326 342 11 4 353 338 344 352
27 32 34 37 36 35 40 32 24 24 23 26 24 16 6 2 6 12 10 353 353 1 344 345 2 325 321 310 317 320 343 335 15 359 347 333 324 315
336 29 18 28 38 26 29 42 32 18 23 22 18 7 356 6 9 6 8 8 7 16 345 349 340 326 321 340 323 4 354 338 350 344 339 333 322 343
21 32 23 20 19 26 26 27 32 25 17 19 19 14 3 3 3 6 7 5 3 354 348 355 350 346 15 357 351 358 342 338 335 329 338 339 336 331
33 31 24 15 16 24 21 16 17 16 18 11 17 16 5 358 1 6 9 7 358 348 346 349 348 357 355 350 12 338 330 320 316 318 312 335 325 332
33 29 20 18 17 20 18 12 8 5 5 6 13 13 8 356 355 3 1 359 354 343 352 349 353 360 351 338 317 333 320 315 323 325 321 292 301 309
25 29 19 18 17 15 14 7 359 357 2 357 2 2 5 354 350 360 356 354 346 344 347 348 353 352 339 324 318 316 330 333 325 315 312 304 287 295
23 21 17 17 13 10 6 3 356 354 354 351 358 358 359 352 346 352 349 347 344 345 346 344 343 336 325 320 326 325 323 322 322 320 310 297 299 300
20 18 13 9 10 9 6 3 352 353 350 352 359 359 354 340 337 345 347 346 347 345 339 334 338 335 332 332 324 319 318 319 319 316 313 307 271 284
22 16 9 3 9 14 8 352 346 344 345 360 360 354 339 330 330 341 343 343 341 345 338 337 336 333 333 324 317 319 321 321 318 318 306 299 343 314